[[{"header":{"parameterUnit":"m.s-1","parameterCategory":1,"la1":30.2991,"la2":30.254,"lo1":-89.0895,"lo2":-89.0444,"dy":0.0017,"dx":0.0017,"nx":28,"ny":28,"refTime":"2025-08-23T09:00:00:Z","depth":0,"parameterNumber":2,"parameterNumberName":"U-component_of_WINDS"},"data":[0,0,0,0,0,0,0,0,0,0,0,0,0,0,0,0,0,0,0,0,0,0,0,0,0,0,0,0,0,0,0,0,0,0,0,0,0,0,0,0,0,0,0,0,0,0,0,0,0,0,0,0,0,0,0,0,0,0,2.7175,2.7177,0,2.734,2.7342,2.7344,2.7325,2.7322,2.7319,2.7317,2.7489,2.7496,2.7503,0,0,0,0,0,0,0,0,0,0,0,0,0,2.6849,2.6855,2.7175,2.7177,2.7179,2.7339,2.7342,2.7344,2.7325,2.7322,2.7319,2.7315,2.7487,2.7495,2.7504,0,0,0,0,0,0,0,0,0,0,0,0,0,2.7,2.6857,2.7174,2.7189,2.7191,2.7339,2.7342,2.7345,2.7326,2.7322,2.7318,2.7314,2.7484,2.7495,2.7505,2.765,0,0,2.7538,2.7542,0,0,0,0,0,0,0,0,2.6992,2.7012,2.7184,2.7188,2.7191,2.7307,2.729,2.7447,2.7327,2.7275,2.7317,2.7312,2.7432,2.7447,2.7487,2.7658,2.7666,2.7538,2.7545,2.7549,2.7552,0,0,0,0,0,0,0,2.6981,2.7005,2.724,2.7187,2.7191,2.7189,2.7206,2.732,2.7374,2.7279,2.7278,2.7298,2.7434,2.7477,2.7491,2.7668,2.7538,2.7548,2.7554,2.7558,2.7971,2.7975,0,0,0,0,0,0,2.6966,2.6996,2.7235,2.7245,2.7079,2.7198,2.7217,2.7274,2.7373,2.7384,2.7301,2.7296,2.746,2.7478,2.7497,2.7674,2.7549,2.7559,2.7565,2.7966,2.7972,2.7977,0,0,0,0,0,0,2.6959,2.6988,2.7228,2.7121,2.7151,2.7208,2.7272,2.728,2.7322,2.7389,2.7399,2.7334,2.7458,2.7482,2.7613,2.768,2.7564,2.7574,2.7961,2.7968,2.7974,2.803,0,0,0,0,0,0,2.695,2.6985,2.7039,2.7122,2.7157,2.7339,2.7276,2.7286,2.734,2.7336,2.7423,2.7434,2.7457,2.7597,2.7623,2.7692,2.7582,2.7955,2.7964,2.7972,2.8022,2.8038,2.8051,0,0,0,0,0,2.6939,2.7049,2.7042,2.7071,2.7225,2.7343,2.7363,2.7386,2.7346,2.7402,2.7445,2.7431,2.7669,2.761,2.764,2.7713,2.7951,2.7961,2.7971,2.8016,2.8035,2.8051,0,0,0,0,0,0,2.6973,2.7059,2.7053,2.7193,2.7261,2.734,2.741,2.7405,2.7487,2.7479,2.7505,2.7525,2.7658,2.7699,2.7632,2.7861,2.7805,2.7821,2.7828,2.7847,2.7861,2.7848,2.7591,0,0,0,0,0,2.6996,2.7084,2.7155,2.7272,2.7306,2.7353,2.7405,2.7417,2.7489,2.7518,2.7571,2.7643,2.7734,2.7793,2.788,2.8029,2.8049,2.8095,2.8109,2.812,2.8134,2.8218,2.824,2.8011,2.801,2.801,0,0,2.7046,2.7105,2.7158,2.728,2.7334,2.7426,2.7377,2.7475,2.7544,2.7533,2.7659,2.7702,2.7784,2.7925,2.799,2.7963,2.8202,2.8134,2.8142,2.815,2.8231,2.8253,2.8272,2.8018,2.8016,2.8015,0,0,2.7183,2.7236,2.7339,2.7395,2.7478,2.7509,2.7534,2.7615,2.7642,2.7769,2.7764,2.7848,2.8003,2.8063,2.8113,2.8278,2.8269,2.8306,2.8381,2.8462,2.848,2.8496,2.8556,2.8577,2.832,2.832,2.832,0,2.7235,2.7371,2.7393,2.7494,2.7549,2.7543,2.765,2.7703,2.7811,2.785,2.7819,2.8016,2.8071,2.8227,2.8267,2.8309,2.8339,2.8295,2.8476,2.8492,2.8508,2.8565,2.8587,2.8324,2.8324,2.8323,2.8323,0,2.7431,2.7526,2.76,2.7704,2.7767,2.787,2.7911,2.7973,2.7981,2.8016,2.8148,2.8214,2.8316,2.8354,2.8363,2.8512,2.8494,2.8469,2.8413,2.8533,2.8587,2.8609,2.833,2.8328,2.8327,2.8326,0,0,2.7591,2.7708,2.7735,2.7783,2.7875,2.795,2.8055,2.8154,2.8207,2.8283,2.8372,2.8506,2.8485,2.8543,2.8559,2.8631,2.8758,2.8598,2.86,2.8625,2.8929,2.8946,2.897,2.8754,2.8758,2.8762,2.8922,0,2.7737,2.7919,2.7944,2.8107,2.8196,2.8195,2.8286,2.8354,2.8391,2.8474,2.8516,2.861,2.8575,2.861,2.8681,2.8727,2.882,2.8717,2.8838,2.8842,2.8816,2.8999,2.9016,2.9164,2.8943,2.8947,2.895,0,2.7931,2.8011,2.8182,2.8265,2.8304,2.8385,2.8479,2.8558,2.8637,2.8659,2.8726,2.8734,2.8845,2.8786,2.894,2.8869,2.8921,2.8952,2.8959,2.897,2.8902,2.9014,2.9212,2.9234,2.8983,2.898,2.8978,0,2.803,2.8182,2.8304,2.8346,2.8446,2.8503,2.8548,2.8623,2.8682,2.8766,2.8804,2.89,2.8953,2.9028,2.9063,2.9016,2.9215,2.9159,2.9238,2.9237,2.9278,2.9274,2.9486,2.9313,2.9313,2.9313,2.9312,0,2.819,2.8294,2.8351,2.8426,2.8544,2.8574,2.8692,2.8735,2.8802,2.8888,2.8894,2.8974,2.9016,2.9103,2.9132,2.9256,2.928,2.9302,2.9308,2.93,2.9298,2.9333,2.9324,2.9319,2.9317,2.9316,2.9315,0,2.8319,2.8361,2.8495,2.8579,2.8604,2.8687,2.8761,2.8835,2.8873,2.8981,2.9008,2.9068,2.9171,2.9214,2.9342,2.9361,2.9504,2.9502,2.9476,2.9478,2.9554,2.9546,2.9795,2.9829,2.9635,2.9637,2.9639,0,2.8418,2.8498,2.8592,2.8649,2.8696,2.8788,2.8848,2.8883,2.8946,2.9044,2.9107,2.9211,2.9295,2.9461,2.9517,2.9616,2.9616,2.9697,2.9631,2.9622,2.9617,2.9611,2.962,2.9708,2.971,2.9712,2.9713,0,2.8588,2.8606,2.8691,2.8786,2.8858,2.8935,2.9009,2.9056,2.9103,2.9174,2.928,2.9345,2.9476,2.9579,2.9682,2.973,2.973,2.9734,2.9757,2.975,2.9731,2.9742,2.9508,2.9727,2.9726,2.9725,2.9724,2.9724,2.8705,2.8777,2.8855,2.8952,2.9012,2.9082,2.9157,2.9205,2.9293,2.9401,2.9417,2.9531,2.9611,2.9748,2.9802,2.9892,2.9872,2.9906,2.9914,2.9922,2.9927,2.9718,2.9911,2.9911,2.9911,2.991,2.991,0,2.8875,2.8926,2.9015,2.9119,2.9196,2.919,2.9273,2.9338,2.9438,2.9512,2.9596,2.9719,2.982,2.9886,2.9988,3.0049,3.0052,3.0075,3.007,3.0081,2.9939,2.9908,3.0071,3.0071,3.007,3.007,3.007,3.007,2.8973,2.9095,2.9123,2.9276,2.9327,2.9437,2.9486,2.9552,2.9612,2.9748,2.9832,2.9874,2.9946,3.0055,3.0148,3.0165,3.0203,3.0227,3.0242,3.0108,3.0091,3.0075,3.0046,3.0235,3.0235,3.0377,3.0378,3.0379]},{"header":{"parameterUnit":"m.s-1","parameterCategory":1,"la1":30.2991,"la2":30.254,"lo1":-89.0895,"lo2":-89.0444,"dy":0.0017,"dx":0.0017,"nx":28,"ny":28,"refTime":"2025-08-23T09:00:00:Z","depth":0,"parameterNumber":3,"parameterNumberName":"V-component_of_WINDS"},"data":[0,0,0,0,0,0,0,0,0,0,0,0,0,0,0,0,0,0,0,0,0,0,0,0,0,0,0,0,0,0,0,0,0,0,0,0,0,0,0,0,0,0,0,0,0,0,0,0,0,0,0,0,0,0,0,0,0,0,1.9614,1.9617,0,1.9935,1.9938,1.9942,1.9973,1.997,1.9966,1.9963,2.0295,2.0307,2.0319,0,0,0,0,0,0,0,0,0,0,0,0,0,1.9028,1.9038,1.9613,1.9617,1.9621,1.9934,1.9938,1.9943,1.9974,1.997,1.9966,1.9962,2.0291,2.0305,2.032,0,0,0,0,0,0,0,0,0,0,0,0,0,1.9309,1.9042,1.9613,1.9674,1.9683,1.9933,1.9939,1.9944,1.9975,1.997,1.9965,1.996,2.0287,2.0304,2.0322,2.0533,0,0,2.0377,2.0384,0,0,0,0,0,0,0,0,1.9293,1.933,1.9661,1.9671,1.9681,1.9909,1.9854,2.0142,1.9976,1.9864,1.9963,1.9957,2.0171,2.0198,2.0269,2.0549,2.0563,2.0378,2.0389,2.0397,2.0402,0,0,0,0,0,0,0,1.9273,1.9317,1.9741,1.9666,1.9678,1.9686,1.9721,1.9908,2.0042,1.9873,1.9876,1.9914,2.0175,2.0252,2.0277,2.0568,2.0378,2.0394,2.0405,2.0412,2.1035,2.104,0,0,0,0,0,0,1.9242,1.93,1.973,1.975,1.947,1.9701,1.9739,1.9841,2.004,2.0065,1.9918,1.9914,2.0224,2.0256,2.0289,2.055,2.0397,2.0414,2.0424,2.1029,2.1036,2.1042,0,0,0,0,0,0,1.9229,1.928,1.9717,1.9526,1.9582,1.9716,1.983,1.985,1.9927,2.0073,2.0098,1.9972,2.0221,2.0264,2.0472,2.0562,2.0422,2.0438,2.1022,2.1031,2.1039,2.1072,0,0,0,0,0,0,1.9212,1.9275,1.9357,1.9528,1.9592,1.9895,1.9835,1.986,1.9957,1.9955,2.013,2.0155,2.0221,2.0445,2.049,2.0584,2.0452,2.1015,2.1026,2.1036,2.1063,2.1081,2.1095,0,0,0,0,0,1.9191,1.9355,1.9361,1.9413,1.9698,1.99,1.9937,2.0009,1.9964,2.0048,2.0141,2.0149,2.0543,2.0466,2.0517,2.0617,2.101,2.1023,2.1036,2.1056,2.1077,2.1095,0,0,0,0,0,0,1.9194,1.9378,1.9388,1.9611,1.9739,1.9905,2.0013,2.0029,2.0173,2.0166,2.0249,2.0288,2.0493,2.0576,2.0485,2.0831,2.0772,2.0796,2.077,2.0792,2.0807,2.0784,2.0467,0,0,0,0,0,1.9219,1.9367,1.9521,1.9703,1.9767,1.9878,1.9969,2.0013,2.0149,2.0204,2.0313,2.0446,2.06,2.07,2.085,2.1074,2.1113,2.1168,2.1184,2.1196,2.1217,2.1341,2.1367,2.1085,2.1085,2.1085,0,0,1.9276,1.9395,1.9484,1.9707,1.9811,1.9963,1.9924,2.0087,2.02,2.0229,2.0432,2.0516,2.067,2.0886,2.0987,2.0962,2.1302,2.1213,2.1222,2.1236,2.1357,2.1383,2.1407,2.1094,2.1092,2.1091,0,0,1.9456,1.9561,1.9724,1.9828,1.9986,2.0059,2.0097,2.026,2.0317,2.052,2.0545,2.068,2.0944,2.1052,2.1141,2.1358,2.137,2.1404,2.1488,2.1608,2.163,2.165,2.1728,2.1755,2.1423,2.1423,2.1423,0,1.9507,1.9736,1.9806,1.9968,2.0065,2.0095,2.026,2.0359,2.0558,2.0624,2.0592,2.0921,2.1027,2.1268,2.1321,2.1392,2.1439,2.1386,2.1621,2.1642,2.1662,2.1737,2.1766,2.1426,2.1426,2.1426,2.1425,0,1.9791,1.9949,2.0061,2.0251,2.036,2.0523,2.0617,2.0719,2.0752,2.0827,2.1033,2.116,2.1335,2.1395,2.143,2.1642,2.1621,2.1604,2.1547,2.1691,2.1763,2.1792,2.1431,2.143,2.1429,2.1428,0,0,1.9986,2.0208,2.0249,2.0334,2.0509,2.0633,2.0795,2.0965,2.1051,2.1186,2.1325,2.1545,2.1529,2.163,2.1677,2.1781,2.1944,2.1751,2.1756,2.1784,2.2185,2.2198,2.223,2.1952,2.1957,2.1962,2.2172,0,2.0187,2.0478,2.0543,2.0794,2.0941,2.0969,2.1111,2.1233,2.1307,2.1442,2.1523,2.1678,2.1645,2.1706,2.1811,2.1902,2.2026,2.1887,2.2083,2.2089,2.2046,2.2268,2.2284,2.2476,2.2201,2.2206,2.2209,0,2.0462,2.0601,2.0865,2.1018,2.1082,2.1208,2.1368,2.1496,2.1634,2.1681,2.1791,2.1826,2.1996,2.1927,2.2162,2.2066,2.2149,2.2206,2.2215,2.2238,2.216,2.2298,2.2539,2.2569,2.2254,2.225,2.2247,0,2.0578,2.0832,2.1022,2.1094,2.1277,2.1365,2.1445,2.1578,2.1675,2.1814,2.1878,2.2035,2.2122,2.2242,2.2318,2.2261,2.2547,2.2485,2.2591,2.2589,2.2653,2.2648,2.2912,2.2702,2.2702,2.2701,2.27,0,2.0797,2.0958,2.1077,2.1195,2.1375,2.1448,2.1624,2.1705,2.1822,2.1955,2.1989,2.2113,2.2205,2.2341,2.2401,2.2587,2.2625,2.2668,2.2682,2.2666,2.2661,2.2724,2.2713,2.2709,2.2707,2.2706,2.2704,0,2.096,2.1046,2.1256,2.141,2.1452,2.1579,2.1711,2.1826,2.1898,2.2066,2.211,2.2224,2.2386,2.2472,2.2676,2.2716,2.2925,2.2931,2.2878,2.2885,2.2986,2.2976,2.3301,2.3348,2.3105,2.3107,2.3109,0,2.1096,2.122,2.1386,2.1477,2.1559,2.1705,2.1804,2.1879,2.198,2.2144,2.2239,2.2403,2.2538,2.2796,2.2898,2.3053,2.3064,2.3167,2.3088,2.3067,2.3067,2.306,2.3072,2.3182,2.3184,2.3186,2.3188,0,2.1327,2.1362,2.1502,2.1657,2.1773,2.1898,2.2022,2.2095,2.219,2.2301,2.2467,2.2572,2.2778,2.294,2.3103,2.3185,2.3203,2.3211,2.3244,2.3231,2.3195,2.3217,2.2918,2.3204,2.3203,2.3201,2.32,2.32,2.1482,2.1593,2.1727,2.1881,2.1981,2.2096,2.2211,2.2296,2.2435,2.2609,2.2644,2.2819,2.2951,2.3171,2.3257,2.3395,2.3374,2.3422,2.3435,2.3446,2.3451,2.317,2.3425,2.3424,2.3424,2.3424,2.3423,0,2.1716,2.1803,2.1943,2.2115,2.2236,2.2238,2.2375,2.2476,2.263,2.2751,2.2882,2.3072,2.3228,2.334,2.3499,2.3588,2.36,2.3627,2.3623,2.3642,2.346,2.3416,2.3615,2.3615,2.3615,2.3615,2.3615,2.3615,2.1853,2.2041,2.2091,2.2328,2.2414,2.2585,2.2663,2.2768,2.2865,2.3074,2.3204,2.3275,2.3392,2.3559,2.3703,2.3731,2.3789,2.3816,2.3846,2.3675,2.3654,2.3635,2.3594,2.3828,2.3828,2.4017,2.4018,2.402]}]]